Time,TemperatureF,DewpointF,PressureIn,WindDirection,WindDirectionDegrees,WindSpeedMPH,WindSpeedGustMPH,Humidity,HourlyPrecipIn,Conditions,Clouds,dailyrainin,SoftwareType,DateUTC
2013-02-23 00:00:00,49.8,48.4,30.02,South,182,4.0,4.0,95,0.00,,,0.12,WeatherCatV1.02B3,2013-02-23 06:00:00,
2013-02-23 00:05:00,49.8,48.4,30.02,South,183,0.0,1.0,95,0.00,,,0.00,WeatherCatV1.02B3,2013-02-23 06:05:00,
2013-02-23 00:10:00,49.8,48.4,30.02,SE,136,2.0,5.0,95,0.00,,,0.00,WeatherCatV1.02B3,2013-02-23 06:10:00,
2013-02-23 00:15:00,49.7,48.3,30.01,SE,136,0.0,4.0,95,0.00,,,0.00,WeatherCatV1.02B3,2013-02-23 06:15:00,
2013-02-23 00:17:00,49.7,48.3,30.01,SSW,192,0.0,3.0,95,0.00,,,0.00,WeatherCatV1.02B3,2013-02-23 06:17:00,
2013-02-23 00:22:00,49.7,48.0,30.00,SSW,194,3.0,7.0,94,0.00,,,0.00,WeatherCatV1.02B3,2013-02-23 06:22:00,
2013-02-23 00:27:00,49.6,47.9,30.00,SE,144,0.0,6.0,94,0.00,,,0.00,WeatherCatV1.02B3,2013-02-23 06:27:00,
2013-02-23 00:32:00,49.6,47.9,30.01,South,180,1.0,6.0,94,0.00,,,0.00,WeatherCatV1.02B3,2013-02-23 06:32:00,
2013-02-23 00:37:00,49.5,47.8,30.02,South,173,4.0,8.0,94,0.00,,,0.00,WeatherCatV1.02B3,2013-02-23 06:37:00,
2013-02-23 00:42:00,49.4,47.7,30.02,ESE,102,0.0,6.0,94,0.00,,,0.00,WeatherCatV1.02B3,2013-02-23 06:42:00,
2013-02-23 00:47:00,49.4,47.7,30.01,SSE,150,4.0,4.0,94,0.00,,,0.00,WeatherCatV1.02B3,2013-02-23 06:47:00,
2013-02-23 00:52:00,49.4,47.7,30.02,South,169,0.0,6.0,94,0.00,,,0.00,WeatherCatV1.02B3,2013-02-23 06:52:00,
2013-02-23 00:57:00,49.3,47.6,30.02,South,171,5.0,7.0,94,0.00,,,0.00,WeatherCatV1.02B3,2013-02-23 06:57:00,
2013-02-23 01:02:00,49.3,47.6,30.02,South,178,0.0,5.0,94,0.00,,,0.00,WeatherCatV1.02B3,2013-02-23 07:02:00,
2013-02-23 01:07:00,49.2,47.5,30.02,SE,140,4.0,7.0,94,0.00,,,0.00,WeatherCatV1.02B3,2013-02-23 07:07:00,
2013-02-23 01:12:00,49.1,47.4,30.03,SE,140,2.0,6.0,94,0.00,,,0.00,WeatherCatV1.02B3,2013-02-23 07:12:00,
2013-02-23 01:17:00,49.1,47.4,30.02,SSE,168,0.0,1.0,94,0.00,,,0.00,WeatherCatV1.02B3,2013-02-23 07:17:00,
2013-02-23 01:22:00,49.0,47.3,30.02,South,172,2.0,7.0,94,0.00,,,0.00,WeatherCatV1.02B3,2013-02-23 07:22:00,
2013-02-23 01:27:00,48.9,47.2,30.02,South,175,0.0,4.0,94,0.00,,,0.00,WeatherCatV1.02B3,2013-02-23 07:27:00,
2013-02-23 01:32:00,48.7,47.0,30.02,South,175,0.0,4.0,94,0.00,,,0.00,WeatherCatV1.02B3,2013-02-23 07:32:00,
2013-02-23 01:37:00,48.6,47.0,30.02,South,170,4.0,6.0,94,0.00,,,0.00,WeatherCatV1.02B3,2013-02-23 07:37:00,
2013-02-23 01:42:00,48.3,46.4,30.02,South,185,0.0,6.0,93,0.00,,,0.00,WeatherCatV1.02B3,2013-02-23 07:42:00,
2013-02-23 01:47:00,48.2,47.7,30.02,South,176,1.0,6.0,98,0.00,,,0.00,WeatherCatV1.02B3,2013-02-23 07:47:00,
2013-02-23 01:52:00,48.1,46.2,30.02,South,177,1.0,5.0,93,0.00,,,0.00,WeatherCatV1.02B3,2013-02-23 07:52:00,
2013-02-23 01:57:00,48.1,46.2,30.02,SSE,155,4.0,6.0,93,0.00,,,0.00,WeatherCatV1.02B3,2013-02-23 07:57:00,
2013-02-23 02:02:00,48.0,46.1,30.01,South,171,0.0,4.0,93,0.00,,,0.00,WeatherCatV1.02B3,2013-02-23 08:02:00,
2013-02-23 02:07:00,47.9,46.0,30.02,South,190,2.0,5.0,93,0.00,,,0.00,WeatherCatV1.02B3,2013-02-23 08:07:00,
2013-02-23 02:12:00,47.8,45.9,30.01,SSE,167,0.0,7.0,93,0.00,,,0.00,WeatherCatV1.02B3,2013-02-23 08:12:00,
2013-02-23 02:13:00,47.8,45.9,30.01,SSE,167,0.0,7.0,93,0.00,,,0.00,WeatherCatV1.02B3,2013-02-23 08:13:00,
2013-02-23 02:18:00,47.6,45.7,30.02,SSE,148,5.0,5.0,93,0.00,,,0.00,WeatherCatV1.02B3,2013-02-23 08:18:00,
2013-02-23 02:23:00,47.5,45.6,30.02,SE,139,0.0,5.0,93,0.00,,,0.00,WeatherCatV1.02B3,2013-02-23 08:23:00,
2013-02-23 02:28:00,47.5,45.6,30.01,SSE,160,2.0,6.0,93,0.00,,,0.00,WeatherCatV1.02B3,2013-02-23 08:28:00,
2013-02-23 02:33:00,47.3,45.4,30.01,SSE,153,5.0,8.0,93,0.00,,,0.00,WeatherCatV1.02B3,2013-02-23 08:33:00,
2013-02-23 02:38:00,47.1,45.2,30.01,South,175,2.0,4.0,93,0.00,,,0.00,WeatherCatV1.02B3,2013-02-23 08:38:00,
2013-02-23 02:43:00,46.9,45.0,30.02,SSE,167,0.0,6.0,93,0.00,,,0.00,WeatherCatV1.02B3,2013-02-23 08:43:00,
2013-02-23 02:48:00,46.8,44.9,30.01,South,169,5.0,6.0,93,0.00,,,0.00,WeatherCatV1.02B3,2013-02-23 08:48:00,
2013-02-23 02:53:00,46.7,44.8,30.01,SSE,160,2.0,2.0,93,0.00,,,0.00,WeatherCatV1.02B3,2013-02-23 08:53:00,
2013-02-23 02:58:00,46.6,44.7,30.01,SSE,158,0.0,6.0,93,0.00,,,0.00,WeatherCatV1.02B3,2013-02-23 08:58:00,
2013-02-23 03:03:00,46.6,44.7,30.01,SSE,163,1.0,6.0,93,0.00,,,0.00,WeatherCatV1.02B3,2013-02-23 09:03:00,
2013-02-23 03:08:00,46.5,44.3,30.01,SSE,159,0.0,5.0,92,0.00,,,0.00,WeatherCatV1.02B3,2013-02-23 09:08:00,
2013-02-23 03:13:00,46.3,44.1,30.00,South,186,2.0,6.0,92,0.00,,,0.00,WeatherCatV1.02B3,2013-02-23 09:13:00,
2013-02-23 03:18:00,46.2,44.0,30.00,SW,217,0.0,6.0,92,0.00,,,0.00,WeatherCatV1.02B3,2013-02-23 09:18:00,
2013-02-23 03:23:00,46.0,43.8,30.01,South,180,0.0,6.0,92,0.00,,,0.00,WeatherCatV1.02B3,2013-02-23 09:23:00,
2013-02-23 03:28:00,45.9,43.7,30.00,South,177,1.0,9.0,92,0.00,,,0.00,WeatherCatV1.02B3,2013-02-23 09:28:00,
2013-02-23 03:33:00,45.8,43.6,30.00,SSE,168,0.0,6.0,92,0.00,,,0.00,WeatherCatV1.02B3,2013-02-23 09:33:00,
2013-02-23 03:38:00,45.7,43.5,29.99,South,188,0.0,3.0,92,0.00,,,0.00,WeatherCatV1.02B3,2013-02-23 09:38:00,
2013-02-23 03:43:00,45.5,43.3,29.99,South,182,0.0,4.0,92,0.00,,,0.00,WeatherCatV1.02B3,2013-02-23 09:43:00,
2013-02-23 03:48:00,45.4,43.2,30.00,South,178,0.0,10.0,92,0.00,,,0.00,WeatherCatV1.02B3,2013-02-23 09:48:00,
2013-02-23 03:53:00,45.4,43.2,30.00,SSE,162,0.0,1.0,92,0.00,,,0.00,WeatherCatV1.02B3,2013-02-23 09:53:00,
2013-02-23 03:58:00,45.3,43.1,30.00,SSE,164,0.0,4.0,92,0.00,,,0.00,WeatherCatV1.02B3,2013-02-23 09:58:00,
2013-02-23 04:03:00,45.2,43.0,29.99,SSE,162,0.0,0.0,92,0.00,,,0.00,WeatherCatV1.02B3,2013-02-23 10:03:00,
2013-02-23 04:08:00,45.1,42.9,29.99,SSW,196,0.0,3.0,92,0.00,,,0.00,WeatherCatV1.02B3,2013-02-23 10:08:00,
2013-02-23 04:13:00,45.0,42.8,29.99,SW,236,0.0,6.0,92,0.00,,,0.00,WeatherCatV1.02B3,2013-02-23 10:13:00,
2013-02-23 04:18:00,44.9,42.7,29.99,SW,236,0.0,0.0,92,0.00,,,0.00,WeatherCatV1.02B3,2013-02-23 10:18:00,
2013-02-23 04:23:00,44.8,42.6,29.99,SW,227,0.0,0.0,92,0.00,,,0.00,WeatherCatV1.02B3,2013-02-23 10:23:00,
2013-02-23 04:28:00,44.7,42.5,29.99,SSW,197,0.0,1.0,92,0.00,,,0.00,WeatherCatV1.02B3,2013-02-23 10:28:00,
2013-02-23 04:33:00,44.6,42.4,30.00,SSW,193,1.0,3.0,92,0.00,,,0.00,WeatherCatV1.02B3,2013-02-23 10:33:00,
2013-02-23 04:38:00,44.6,42.4,30.00,South,188,4.0,4.0,92,0.00,,,0.00,WeatherCatV1.02B3,2013-02-23 10:38:00,
2013-02-23 04:43:00,44.5,42.3,30.00,SSE,147,0.0,7.0,92,0.00,,,0.00,WeatherCatV1.02B3,2013-02-23 10:43:00,
2013-02-23 04:48:00,44.5,42.3,30.00,SSE,159,1.0,1.0,92,0.00,,,0.00,WeatherCatV1.02B3,2013-02-23 10:48:00,
2013-02-23 04:53:00,44.5,42.3,30.00,South,183,0.0,2.0,92,0.00,,,0.00,WeatherCatV1.02B3,2013-02-23 10:53:00,
2013-02-23 04:58:00,44.4,42.2,30.01,South,176,0.0,5.0,92,0.00,,,0.00,WeatherCatV1.02B3,2013-02-23 10:58:00,
2013-02-23 05:03:00,44.4,42.2,30.01,South,189,0.0,5.0,92,0.00,,,0.00,WeatherCatV1.02B3,2013-02-23 11:03:00,
2013-02-23 05:08:00,44.3,42.1,30.01,South,189,0.0,0.0,92,0.00,,,0.00,WeatherCatV1.02B3,2013-02-23 11:08:00,
2013-02-23 05:13:00,44.2,42.0,30.02,South,184,0.0,2.0,92,0.00,,,0.00,WeatherCatV1.02B3,2013-02-23 11:13:00,
2013-02-23 05:18:00,44.1,41.9,30.01,South,183,0.0,4.0,92,0.00,,,0.00,WeatherCatV1.02B3,2013-02-23 11:18:00,
2013-02-23 05:23:00,44.0,41.8,30.01,South,180,0.0,1.0,92,0.00,,,0.00,WeatherCatV1.02B3,2013-02-23 11:23:00,
2013-02-23 05:28:00,43.9,41.7,30.01,South,184,0.0,2.0,92,0.00,,,0.00,WeatherCatV1.02B3,2013-02-23 11:28:00,
2013-02-23 05:33:00,43.8,41.6,30.00,South,184,0.0,1.0,92,0.00,,,0.00,WeatherCatV1.02B3,2013-02-23 11:33:00,
2013-02-23 05:38:00,43.7,41.8,30.00,South,182,0.0,3.0,93,0.00,,,0.00,WeatherCatV1.02B3,2013-02-23 11:38:00,
2013-02-23 05:43:00,43.6,41.7,30.00,South,176,1.0,2.0,93,0.00,,,0.00,WeatherCatV1.02B3,2013-02-23 11:43:00,
2013-02-23 05:48:00,43.5,41.6,30.00,South,176,0.0,5.0,93,0.00,,,0.00,WeatherCatV1.02B3,2013-02-23 11:48:00,
2013-02-23 05:53:00,43.3,41.4,30.01,South,176,0.0,0.0,93,0.00,,,0.00,WeatherCatV1.02B3,2013-02-23 11:53:00,
2013-02-23 05:58:00,43.2,41.3,30.00,South,176,0.0,0.0,93,0.00,,,0.00,WeatherCatV1.02B3,2013-02-23 11:58:00,
2013-02-23 06:03:00,43.1,41.2,30.01,South,176,0.0,0.0,93,0.00,,,0.00,WeatherCatV1.02B3,2013-02-23 12:03:00,
2013-02-23 06:08:00,43.0,41.1,30.00,South,176,0.0,2.0,93,0.00,,,0.00,WeatherCatV1.02B3,2013-02-23 12:08:00,
2013-02-23 06:13:00,42.9,41.0,30.00,SW,227,0.0,5.0,93,0.00,,,0.00,WeatherCatV1.02B3,2013-02-23 12:13:00,
2013-02-23 06:18:00,42.8,40.9,30.00,SW,227,0.0,1.0,93,0.00,,,0.00,WeatherCatV1.02B3,2013-02-23 12:18:00,
2013-02-23 06:23:00,42.7,40.8,30.00,SW,227,0.0,0.0,93,0.00,,,0.00,WeatherCatV1.02B3,2013-02-23 12:23:00,
2013-02-23 06:28:00,42.7,40.8,30.00,SSW,192,0.0,3.0,93,0.00,,,0.00,WeatherCatV1.02B3,2013-02-23 12:28:00,
2013-02-23 06:33:00,42.6,40.7,29.99,SSW,202,0.0,3.0,93,0.00,,,0.00,WeatherCatV1.02B3,2013-02-23 12:33:00,
2013-02-23 06:38:00,42.5,40.6,29.99,South,190,0.0,0.0,93,0.00,,,0.00,WeatherCatV1.02B3,2013-02-23 12:38:00,
2013-02-23 06:43:00,42.5,40.9,29.99,South,188,0.0,1.0,94,0.00,,,0.00,WeatherCatV1.02B3,2013-02-23 12:43:00,
2013-02-23 06:48:00,42.5,40.9,29.99,South,188,0.0,1.0,94,0.00,,,0.00,WeatherCatV1.02B3,2013-02-23 12:48:00,
2013-02-23 06:53:00,42.5,40.9,29.99,South,189,1.0,3.0,94,0.00,,,0.00,WeatherCatV1.02B3,2013-02-23 12:53:00,
2013-02-23 06:58:00,42.4,40.8,29.99,South,187,1.0,3.0,94,0.00,,,0.00,WeatherCatV1.02B3,2013-02-23 12:58:00,
2013-02-23 07:03:00,42.5,40.9,30.00,South,179,0.0,7.0,94,0.00,,,0.00,WeatherCatV1.02B3,2013-02-23 13:03:00,
2013-02-23 07:08:00,42.5,40.9,29.99,South,177,0.0,0.0,94,0.00,,,0.00,WeatherCatV1.02B3,2013-02-23 13:08:00,
2013-02-23 07:13:00,42.5,40.9,29.99,South,176,0.0,5.0,94,0.00,,,0.00,WeatherCatV1.02B3,2013-02-23 13:13:00,
2013-02-23 07:18:00,42.6,41.0,30.00,South,176,1.0,4.0,94,0.00,,,0.00,WeatherCatV1.02B3,2013-02-23 13:18:00,
2013-02-23 07:23:00,42.7,41.1,30.00,WSW,240,4.0,5.0,94,0.00,,,0.00,WeatherCatV1.02B3,2013-02-23 13:23:00,
2013-02-23 07:28:00,42.9,41.3,29.99,SSE,147,1.0,4.0,94,0.00,,,0.00,WeatherCatV1.02B3,2013-02-23 13:28:00,
2013-02-23 07:33:00,43.0,41.7,29.99,SSW,209,4.0,5.0,95,0.00,,,0.00,WeatherCatV1.02B3,2013-02-23 13:33:00,
2013-02-23 07:38:00,43.1,41.8,30.00,SSW,194,0.0,2.0,95,0.00,,,0.00,WeatherCatV1.02B3,2013-02-23 13:38:00,
2013-02-23 07:43:00,43.2,41.6,30.01,SW,234,0.0,2.0,94,0.00,,,0.00,WeatherCatV1.02B3,2013-02-23 13:43:00,
2013-02-23 07:48:00,43.3,41.7,30.01,SW,230,1.0,1.0,94,0.00,,,0.00,WeatherCatV1.02B3,2013-02-23 13:48:00,
2013-02-23 07:53:00,43.4,41.8,30.02,South,176,1.0,7.0,94,0.00,,,0.00,WeatherCatV1.02B3,2013-02-23 13:53:00,
2013-02-23 07:58:00,43.7,42.1,30.02,SE,143,0.0,1.0,94,0.00,,,0.00,WeatherCatV1.02B3,2013-02-23 13:58:00,
2013-02-23 08:03:00,43.9,42.3,30.03,South,184,0.0,2.0,94,0.00,,,0.00,WeatherCatV1.02B3,2013-02-23 14:03:00,
2013-02-23 08:08:00,44.1,42.5,30.03,South,184,0.0,2.0,94,0.00,,,0.00,WeatherCatV1.02B3,2013-02-23 14:08:00,
2013-02-23 08:13:00,44.5,42.9,30.03,South,184,1.0,2.0,94,0.00,,,0.00,WeatherCatV1.02B3,2013-02-23 14:13:00,
2013-02-23 08:18:00,44.7,43.1,30.03,South,184,0.0,2.0,94,0.00,,,0.00,WeatherCatV1.02B3,2013-02-23 14:18:00,
2013-02-23 08:23:00,45.0,43.4,30.04,South,187,0.0,1.0,94,0.00,,,0.00,WeatherCatV1.02B3,2013-02-23 14:23:00,
2013-02-23 08:28:00,45.1,43.2,30.04,South,182,0.0,2.0,93,0.00,,,0.00,WeatherCatV1.02B3,2013-02-23 14:28:00,
2013-02-23 08:33:00,45.2,43.3,30.04,South,182,0.0,1.0,93,0.00,,,0.00,WeatherCatV1.02B3,2013-02-23 14:33:00,
2013-02-23 08:38:00,45.4,43.5,30.04,South,180,0.0,2.0,93,0.00,,,0.00,WeatherCatV1.02B3,2013-02-23 14:38:00,
2013-02-23 08:43:00,45.6,43.4,30.04,South,180,0.0,1.0,92,0.00,,,0.00,WeatherCatV1.02B3,2013-02-23 14:43:00,
2013-02-23 08:48:00,45.5,43.3,30.04,South,178,0.0,1.0,92,0.00,,,0.00,WeatherCatV1.02B3,2013-02-23 14:48:00,
2013-02-23 08:53:00,45.8,43.6,30.04,South,178,0.0,1.0,92,0.00,,,0.00,WeatherCatV1.02B3,2013-02-23 14:53:00,
2013-02-23 08:58:00,46.0,43.5,30.04,South,178,0.0,0.0,91,0.00,,,0.00,WeatherCatV1.02B3,2013-02-23 14:58:00,
2013-02-23 09:03:00,46.2,43.7,30.05,South,178,0.0,5.0,91,0.00,,,0.00,WeatherCatV1.02B3,2013-02-23 15:03:00,
2013-02-23 09:08:00,46.5,43.7,30.05,South,178,1.0,1.0,90,0.00,,,0.00,WeatherCatV1.02B3,2013-02-23 15:08:00,
2013-02-23 09:13:00,46.7,43.6,30.05,South,178,0.0,0.0,89,0.00,,,0.00,WeatherCatV1.02B3,2013-02-23 15:13:00,
2013-02-23 09:18:00,47.1,44.0,30.04,South,178,0.0,2.0,89,0.00,,,0.00,WeatherCatV1.02B3,2013-02-23 15:18:00,
2013-02-23 09:23:00,47.4,44.0,30.04,East,80,0.0,4.0,88,0.00,,,0.00,WeatherCatV1.02B3,2013-02-23 15:23:00,
2013-02-23 09:28:00,47.5,44.1,30.05,SSE,167,4.0,5.0,88,0.00,,,0.00,WeatherCatV1.02B3,2013-02-23 15:28:00,
2013-02-23 09:33:00,47.2,43.5,30.04,ENE,59,0.0,2.0,87,0.00,,,0.00,WeatherCatV1.02B3,2013-02-23 15:33:00,
2013-02-23 09:38:00,47.1,43.4,30.04,NNW,339,0.0,4.0,87,0.00,,,0.00,WeatherCatV1.02B3,2013-02-23 15:38:00,
2013-02-23 09:43:00,47.2,43.8,30.04,SSE,163,4.0,6.0,88,0.00,,,0.00,WeatherCatV1.02B3,2013-02-23 15:43:00,
2013-02-23 09:48:00,47.6,44.2,30.03,South,182,3.0,5.0,88,0.00,,,0.00,WeatherCatV1.02B3,2013-02-23 15:48:00,
2013-02-23 09:53:00,47.9,44.5,30.03,South,175,0.0,5.0,88,0.00,,,0.00,WeatherCatV1.02B3,2013-02-23 15:53:00,
2013-02-23 09:58:00,47.9,43.9,30.02,South,171,0.0,1.0,86,0.00,,,0.00,WeatherCatV1.02B3,2013-02-23 15:58:00,
2013-02-23 10:03:00,48.2,44.2,30.03,South,173,0.0,1.0,86,0.00,,,0.00,WeatherCatV1.02B3,2013-02-23 16:03:00,
2013-02-23 10:08:00,48.5,44.5,30.03,NE,54,0.0,5.0,86,0.00,,,0.00,WeatherCatV1.02B3,2013-02-23 16:08:00,
2013-02-23 10:13:00,48.9,44.6,30.02,SSE,160,1.0,5.0,85,0.00,,,0.00,WeatherCatV1.02B3,2013-02-23 16:13:00,
2013-02-23 10:18:00,49.3,44.7,30.02,SE,140,4.0,6.0,84,0.00,,,0.00,WeatherCatV1.02B3,2013-02-23 16:18:00,
2013-02-23 10:23:00,49.8,45.2,30.03,SSE,159,0.0,5.0,84,0.00,,,0.00,WeatherCatV1.02B3,2013-02-23 16:23:00,
2013-02-23 10:28:00,50.5,45.8,30.03,South,171,1.0,1.0,84,0.00,,,0.00,WeatherCatV1.02B3,2013-02-23 16:28:00,
2013-02-23 10:33:00,50.8,45.5,30.03,SE,145,2.0,4.0,82,0.00,,,0.00,WeatherCatV1.02B3,2013-02-23 16:33:00,
2013-02-23 10:38:00,50.7,45.1,30.03,ENE,74,0.0,1.0,81,0.00,,,0.00,WeatherCatV1.02B3,2013-02-23 16:38:00,
2013-02-23 10:43:00,50.9,45.3,30.03,East,88,0.0,1.0,81,0.00,,,0.00,WeatherCatV1.02B3,2013-02-23 16:43:00,
2013-02-23 10:48:00,50.5,44.6,30.04,East,90,1.0,1.0,80,0.00,,,0.00,WeatherCatV1.02B3,2013-02-23 16:48:00,
2013-02-23 10:53:00,50.4,44.8,30.03,NE,49,1.0,2.0,81,0.00,,,0.00,WeatherCatV1.02B3,2013-02-23 16:53:00,
2013-02-23 10:58:00,50.4,44.8,30.03,ENE,67,0.0,2.0,81,0.00,,,0.00,WeatherCatV1.02B3,2013-02-23 16:58:00,
2013-02-23 11:03:00,50.7,45.4,30.02,South,181,0.0,0.0,82,0.00,,,0.00,WeatherCatV1.02B3,2013-02-23 17:03:00,
2013-02-23 11:08:00,50.7,44.8,30.02,SE,146,1.0,1.0,80,0.00,,,0.00,WeatherCatV1.02B3,2013-02-23 17:08:00,
2013-02-23 11:13:00,51.0,45.4,30.02,SSE,162,0.0,5.0,81,0.00,,,0.00,WeatherCatV1.02B3,2013-02-23 17:13:00,
2013-02-23 11:18:00,51.5,45.9,30.02,SSE,161,0.0,4.0,81,0.00,,,0.00,WeatherCatV1.02B3,2013-02-23 17:18:00,
2013-02-23 11:23:00,51.9,45.9,30.02,SSW,194,0.0,4.0,80,0.00,,,0.00,WeatherCatV1.02B3,2013-02-23 17:23:00,
2013-02-23 11:28:00,52.3,46.0,30.01,SSE,159,2.0,6.0,79,0.00,,,0.00,WeatherCatV1.02B3,2013-02-23 17:28:00,
2013-02-23 11:33:00,52.4,45.7,30.00,SSE,153,0.0,6.0,78,0.00,,,0.00,WeatherCatV1.02B3,2013-02-23 17:33:00,
2013-02-23 11:38:00,52.6,46.6,30.00,SSE,161,0.0,4.0,80,0.00,,,0.00,WeatherCatV1.02B3,2013-02-23 17:38:00,
2013-02-23 11:43:00,53.0,47.3,30.00,South,182,1.0,6.0,81,0.00,,,0.00,WeatherCatV1.02B3,2013-02-23 17:43:00,
2013-02-23 11:48:00,53.1,46.8,30.00,SSE,159,1.0,5.0,79,0.00,,,0.00,WeatherCatV1.02B3,2013-02-23 17:48:00,
2013-02-23 11:53:00,53.2,46.9,30.00,SSE,159,4.0,5.0,79,0.00,,,0.00,WeatherCatV1.02B3,2013-02-23 17:53:00,
2013-02-23 11:58:00,52.9,46.2,30.00,SSE,159,2.0,4.0,78,0.00,,,0.00,WeatherCatV1.02B3,2013-02-23 17:58:00,
2013-02-23 12:03:00,53.0,46.7,30.00,SSE,165,0.0,2.0,79,0.00,,,0.00,WeatherCatV1.02B3,2013-02-23 18:03:00,
2013-02-23 12:08:00,52.9,46.9,30.00,South,173,4.0,5.0,80,0.00,,,0.00,WeatherCatV1.02B3,2013-02-23 18:08:00,
2013-02-23 12:13:00,53.3,47.0,30.00,South,169,0.0,5.0,79,0.00,,,0.00,WeatherCatV1.02B3,2013-02-23 18:13:00,
2013-02-23 12:18:00,53.3,47.0,29.99,South,179,2.0,5.0,79,0.00,,,0.00,WeatherCatV1.02B3,2013-02-23 18:18:00,
2013-02-23 12:23:00,53.3,47.0,29.99,SSW,208,4.0,4.0,79,0.00,,,0.00,WeatherCatV1.02B3,2013-02-23 18:23:00,
2013-02-23 12:28:00,53.3,47.0,29.99,SW,226,0.0,4.0,79,0.00,,,0.00,WeatherCatV1.02B3,2013-02-23 18:28:00,
2013-02-23 12:33:00,53.3,47.0,29.99,SSW,201,0.0,6.0,79,0.00,,,0.00,WeatherCatV1.02B3,2013-02-23 18:33:00,
2013-02-23 12:38:00,53.4,46.7,29.99,SSE,163,0.0,5.0,78,0.00,,,0.00,WeatherCatV1.02B3,2013-02-23 18:38:00,
2013-02-23 12:43:00,53.3,47.0,29.99,SE,130,2.0,4.0,79,0.00,,,0.00,WeatherCatV1.02B3,2013-02-23 18:43:00,
2013-02-23 12:48:00,53.1,46.4,29.98,SSW,200,3.0,6.0,78,0.00,,,0.00,WeatherCatV1.02B3,2013-02-23 18:48:00,
2013-02-23 12:53:00,53.3,47.0,29.98,SW,220,2.0,7.0,79,0.00,,,0.00,WeatherCatV1.02B3,2013-02-23 18:53:00,
2013-02-23 12:58:00,53.5,46.8,29.98,South,182,0.0,1.0,78,0.00,,,0.00,WeatherCatV1.02B3,2013-02-23 18:58:00,
2013-02-23 13:03:00,53.4,46.7,29.98,South,170,0.0,2.0,78,0.00,,,0.00,WeatherCatV1.02B3,2013-02-23 19:03:00,
2013-02-23 13:08:00,53.2,46.5,29.97,SSE,153,1.0,1.0,78,0.00,,,0.00,WeatherCatV1.02B3,2013-02-23 19:08:00,
2013-02-23 13:13:00,53.3,47.0,29.97,SSE,161,5.0,8.0,79,0.00,,,0.00,WeatherCatV1.02B3,2013-02-23 19:13:00,
2013-02-23 13:18:00,53.5,46.8,29.97,South,180,3.0,5.0,78,0.00,,,0.00,WeatherCatV1.02B3,2013-02-23 19:18:00,
2013-02-23 13:23:00,53.8,47.4,29.96,South,180,0.0,6.0,79,0.00,,,0.00,WeatherCatV1.02B3,2013-02-23 19:23:00,
2013-02-23 13:28:00,54.1,47.4,29.96,South,180,0.0,7.0,78,0.00,,,0.00,WeatherCatV1.02B3,2013-02-23 19:28:00,
2013-02-23 13:33:00,53.8,46.4,29.97,ESE,110,1.0,5.0,76,0.00,,,0.00,WeatherCatV1.02B3,2013-02-23 19:33:00,
2013-02-23 13:38:00,53.9,47.2,29.97,SE,139,0.0,2.0,78,0.00,,,0.00,WeatherCatV1.02B3,2013-02-23 19:38:00,
2013-02-23 13:43:00,54.3,47.2,29.97,SSE,158,2.0,8.0,77,0.00,,,0.00,WeatherCatV1.02B3,2013-02-23 19:43:00,
2013-02-23 13:48:00,54.5,47.8,29.97,SE,144,2.0,4.0,78,0.00,,,0.00,WeatherCatV1.02B3,2013-02-23 19:48:00,
2013-02-23 13:53:00,54.6,46.8,29.96,ENE,60,1.0,6.0,75,0.00,,,0.00,WeatherCatV1.02B3,2013-02-23 19:53:00,
2013-02-23 13:58:00,55.1,47.7,29.96,SE,144,2.0,5.0,76,0.00,,,0.00,WeatherCatV1.02B3,2013-02-23 19:58:00,
2013-02-23 14:03:00,55.2,47.8,29.97,SSE,159,5.0,5.0,76,0.00,,,0.00,WeatherCatV1.02B3,2013-02-23 20:03:00,
2013-02-23 14:08:00,55.3,47.2,29.97,East,98,1.0,2.0,74,0.00,,,0.00,WeatherCatV1.02B3,2013-02-23 20:08:00,
2013-02-23 14:13:00,55.5,48.4,29.97,South,186,0.0,7.0,77,0.00,,,0.00,WeatherCatV1.02B3,2013-02-23 20:13:00,
2013-02-23 14:18:00,55.5,47.7,29.97,South,174,2.0,6.0,75,0.00,,,0.00,WeatherCatV1.02B3,2013-02-23 20:18:00,
2013-02-23 14:23:00,55.3,47.2,29.96,SSE,165,2.0,8.0,74,0.00,,,0.00,WeatherCatV1.02B3,2013-02-23 20:23:00,
2013-02-23 14:28:00,55.3,47.5,29.96,South,180,4.0,7.0,75,0.00,,,0.00,WeatherCatV1.02B3,2013-02-23 20:28:00,
2013-02-23 14:33:00,55.5,47.3,29.96,South,176,0.0,2.0,74,0.00,,,0.00,WeatherCatV1.02B3,2013-02-23 20:33:00,
2013-02-23 14:38:00,55.7,47.2,29.96,NE,34,0.0,1.0,73,0.00,,,0.00,WeatherCatV1.02B3,2013-02-23 20:38:00,
2013-02-23 14:43:00,55.5,47.3,29.96,SE,135,0.0,8.0,74,0.00,,,0.00,WeatherCatV1.02B3,2013-02-23 20:43:00,
2013-02-23 14:48:00,55.7,47.2,29.96,South,184,4.0,6.0,73,0.00,,,0.00,WeatherCatV1.02B3,2013-02-23 20:48:00,
2013-02-23 14:53:00,55.7,47.2,29.95,South,181,0.0,7.0,73,0.00,,,0.00,WeatherCatV1.02B3,2013-02-23 20:53:00,
2013-02-23 14:58:00,56.4,48.2,29.95,South,178,0.0,5.0,74,0.00,,,0.00,WeatherCatV1.02B3,2013-02-23 20:58:00,
2013-02-23 15:03:00,56.4,47.1,29.95,South,178,1.0,1.0,71,0.00,,,0.00,WeatherCatV1.02B3,2013-02-23 21:03:00,
2013-02-23 15:08:00,56.6,46.9,29.95,South,183,0.0,1.0,70,0.00,,,0.00,WeatherCatV1.02B3,2013-02-23 21:08:00,
2013-02-23 15:13:00,56.7,46.6,29.95,SSE,150,0.0,6.0,69,0.00,,,0.00,WeatherCatV1.02B3,2013-02-23 21:13:00,
2013-02-23 15:18:00,56.6,47.3,29.95,South,173,0.0,1.0,71,0.00,,,0.00,WeatherCatV1.02B3,2013-02-23 21:18:00,
2013-02-23 15:23:00,57.2,47.5,29.95,South,172,2.0,5.0,70,0.00,,,0.00,WeatherCatV1.02B3,2013-02-23 21:23:00,
2013-02-23 15:28:00,57.3,47.2,29.95,South,173,1.0,1.0,69,0.00,,,0.00,WeatherCatV1.02B3,2013-02-23 21:28:00,
2013-02-23 15:33:00,57.4,47.7,29.95,SW,236,0.0,5.0,70,0.00,,,0.00,WeatherCatV1.02B3,2013-02-23 21:33:00,
2013-02-23 15:38:00,57.2,47.1,29.95,SW,230,0.0,2.0,69,0.00,,,0.00,WeatherCatV1.02B3,2013-02-23 21:38:00,
2013-02-23 15:43:00,57.7,47.6,29.95,SSW,205,2.0,2.0,69,0.00,,,0.00,WeatherCatV1.02B3,2013-02-23 21:43:00,
2013-02-23 15:48:00,57.6,47.5,29.95,WSW,245,1.0,1.0,69,0.00,,,0.00,WeatherCatV1.02B3,2013-02-23 21:48:00,
2013-02-23 15:53:00,57.1,46.6,29.95,West,263,0.0,2.0,68,0.00,,,0.00,WeatherCatV1.02B3,2013-02-23 21:53:00,
2013-02-23 15:58:00,57.1,47.0,29.94,South,180,0.0,4.0,69,0.00,,,0.00,WeatherCatV1.02B3,2013-02-23 21:58:00,
2013-02-23 16:03:00,57.6,47.5,29.94,South,180,0.0,3.0,69,0.00,,,0.00,WeatherCatV1.02B3,2013-02-23 22:03:00,
2013-02-23 16:08:00,57.9,47.4,29.94,South,170,1.0,5.0,68,0.00,,,0.00,WeatherCatV1.02B3,2013-02-23 22:08:00,
2013-02-23 16:13:00,57.8,47.7,29.94,SSW,212,3.0,5.0,69,0.00,,,0.00,WeatherCatV1.02B3,2013-02-23 22:13:00,
2013-02-23 16:18:00,57.9,47.4,29.94,South,173,2.0,4.0,68,0.00,,,0.00,WeatherCatV1.02B3,2013-02-23 22:18:00,
2013-02-23 16:23:00,57.7,47.2,29.95,South,173,0.0,6.0,68,0.00,,,0.00,WeatherCatV1.02B3,2013-02-23 22:23:00,
2013-02-23 16:28:00,57.4,46.9,29.95,South,171,2.0,6.0,68,0.00,,,0.00,WeatherCatV1.02B3,2013-02-23 22:28:00,
2013-02-23 16:33:00,57.1,46.6,29.95,South,173,0.0,7.0,68,0.00,,,0.00,WeatherCatV1.02B3,2013-02-23 22:33:00,
2013-02-23 16:38:00,56.6,46.2,29.95,South,169,0.0,4.0,68,0.00,,,0.00,WeatherCatV1.02B3,2013-02-23 22:38:00,
2013-02-23 16:43:00,56.2,45.4,29.95,SSE,155,1.0,7.0,67,0.00,,,0.00,WeatherCatV1.02B3,2013-02-23 22:43:00,
2013-02-23 16:48:00,56.0,46.0,29.95,South,178,0.0,5.0,69,0.00,,,0.00,WeatherCatV1.02B3,2013-02-23 22:48:00,
2013-02-23 16:53:00,55.8,46.2,29.95,SSE,165,4.0,5.0,70,0.00,,,0.00,WeatherCatV1.02B3,2013-02-23 22:53:00,
2013-02-23 16:58:00,55.7,45.3,29.95,South,178,4.0,4.0,68,0.00,,,0.00,WeatherCatV1.02B3,2013-02-23 22:58:00,
2013-02-23 17:03:00,55.5,45.9,29.96,South,178,1.0,1.0,70,0.00,,,0.00,WeatherCatV1.02B3,2013-02-23 23:03:00,
2013-02-23 17:08:00,55.3,46.1,29.96,South,169,2.0,6.0,71,0.00,,,0.00,WeatherCatV1.02B3,2013-02-23 23:08:00,
2013-02-23 17:13:00,55.2,45.6,29.96,South,183,2.0,8.0,70,0.00,,,0.00,WeatherCatV1.02B3,2013-02-23 23:13:00,
2013-02-23 17:18:00,55.0,45.4,29.96,ESE,123,0.0,6.0,70,0.00,,,0.00,WeatherCatV1.02B3,2013-02-23 23:18:00,
2013-02-23 17:23:00,55.0,45.4,29.96,SSE,168,4.0,7.0,70,0.00,,,0.00,WeatherCatV1.02B3,2013-02-23 23:23:00,
2013-02-23 17:28:00,54.9,46.0,29.96,SSE,156,2.0,5.0,72,0.00,,,0.00,WeatherCatV1.02B3,2013-02-23 23:28:00,
2013-02-23 17:33:00,54.7,45.9,29.97,SE,141,0.0,5.0,72,0.00,,,0.00,WeatherCatV1.02B3,2013-02-23 23:33:00,
2013-02-23 17:38:00,54.4,45.6,29.97,SE,144,0.0,1.0,72,0.00,,,0.00,WeatherCatV1.02B3,2013-02-23 23:38:00,
2013-02-23 17:43:00,54.2,45.4,29.97,SE,144,0.0,1.0,72,0.00,,,0.00,WeatherCatV1.02B3,2013-02-23 23:43:00,
2013-02-23 17:48:00,53.9,45.1,29.97,South,189,0.0,2.0,72,0.00,,,0.00,WeatherCatV1.02B3,2013-02-23 23:48:00,
2013-02-23 17:53:00,53.6,44.8,29.98,SSE,148,0.0,4.0,72,0.00,,,0.00,WeatherCatV1.02B3,2013-02-23 23:53:00,
2013-02-23 17:58:00,53.3,44.5,29.98,SE,144,4.0,7.0,72,0.00,,,0.00,WeatherCatV1.02B3,2013-02-23 23:58:00,
2013-02-23 18:03:00,53.0,43.9,29.98,SSE,167,6.0,8.0,71,0.00,,,0.00,WeatherCatV1.02B3,2013-02-24 00:03:00,
2013-02-23 18:08:00,52.8,43.7,29.99,South,180,0.0,2.0,71,0.00,,,0.00,WeatherCatV1.02B3,2013-02-24 00:08:00,
2013-02-23 18:13:00,52.5,43.7,29.99,South,178,1.0,4.0,72,0.00,,,0.00,WeatherCatV1.02B3,2013-02-24 00:13:00,
2013-02-23 18:18:00,52.2,43.4,29.99,South,169,0.0,5.0,72,0.00,,,0.00,WeatherCatV1.02B3,2013-02-24 00:18:00,
2013-02-23 18:23:00,51.9,43.2,30.00,SSE,162,1.0,4.0,72,0.00,,,0.00,WeatherCatV1.02B3,2013-02-24 00:23:00,
2013-02-23 18:28:00,51.7,42.6,29.99,SSE,165,0.0,6.0,71,0.00,,,0.00,WeatherCatV1.02B3,2013-02-24 00:28:00,
2013-02-23 18:33:00,51.4,42.7,29.99,SSE,165,0.0,1.0,72,0.00,,,0.00,WeatherCatV1.02B3,2013-02-24 00:33:00,
2013-02-23 18:38:00,51.2,42.5,29.99,SSE,165,4.0,5.0,72,0.00,,,0.00,WeatherCatV1.02B3,2013-02-24 00:38:00,
2013-02-23 18:43:00,51.0,42.3,29.99,SSE,165,0.0,0.0,72,0.00,,,0.00,WeatherCatV1.02B3,2013-02-24 00:43:00,
2013-02-23 18:48:00,50.8,42.5,29.99,SSE,165,0.0,0.0,73,0.00,,,0.00,WeatherCatV1.02B3,2013-02-24 00:48:00,
2013-02-23 18:53:00,50.5,42.5,30.00,SSE,165,0.0,1.0,74,0.00,,,0.00,WeatherCatV1.02B3,2013-02-24 00:53:00,
2013-02-23 18:58:00,50.3,42.7,30.00,SSE,165,0.0,0.0,75,0.00,,,0.00,WeatherCatV1.02B3,2013-02-24 00:58:00,
2013-02-23 19:03:00,50.0,42.0,30.00,SSE,165,0.0,0.0,74,0.00,,,0.00,WeatherCatV1.02B3,2013-02-24 01:03:00,
2013-02-23 19:08:00,49.7,42.4,30.00,SSE,165,0.0,0.0,76,0.00,,,0.00,WeatherCatV1.02B3,2013-02-24 01:08:00,
2013-02-23 19:14:00,49.4,42.2,30.00,SSE,165,0.0,0.0,76,0.00,,,0.00,WeatherCatV1.02B3,2013-02-24 01:14:00,
2013-02-23 19:19:00,49.1,42.5,30.01,SSE,165,0.0,0.0,78,0.00,,,0.00,WeatherCatV1.02B3,2013-02-24 01:19:00,
2013-02-23 19:24:00,48.7,42.2,30.01,SSE,165,0.0,2.0,78,0.00,,,0.00,WeatherCatV1.02B3,2013-02-24 01:24:00,
2013-02-23 19:29:00,48.5,42.0,30.01,SSE,165,0.0,0.0,78,0.00,,,0.00,WeatherCatV1.02B3,2013-02-24 01:29:00,
2013-02-23 19:34:00,48.3,41.8,30.00,SSE,165,0.0,0.0,78,0.00,,,0.00,WeatherCatV1.02B3,2013-02-24 01:34:00,
2013-02-23 19:39:00,48.1,41.9,30.01,SSE,165,0.0,0.0,79,0.00,,,0.00,WeatherCatV1.02B3,2013-02-24 01:39:00,
2013-02-23 19:44:00,47.9,41.7,30.01,SSE,165,0.0,0.0,79,0.00,,,0.00,WeatherCatV1.02B3,2013-02-24 01:44:00,
2013-02-23 19:49:00,47.7,41.5,30.01,SSE,165,0.0,0.0,79,0.00,,,0.00,WeatherCatV1.02B3,2013-02-24 01:49:00,
2013-02-23 19:54:00,47.5,41.6,30.01,SSE,165,0.0,0.0,80,0.00,,,0.00,WeatherCatV1.02B3,2013-02-24 01:54:00,
2013-02-23 19:59:00,47.5,41.3,30.01,SSE,163,0.0,4.0,79,0.00,,,0.00,WeatherCatV1.02B3,2013-02-24 01:59:00,
2013-02-23 20:04:00,47.5,41.3,30.01,SSE,163,0.0,1.0,79,0.00,,,0.00,WeatherCatV1.02B3,2013-02-24 02:04:00,
2013-02-23 20:09:00,47.5,41.3,30.01,SSE,163,0.0,1.0,79,0.00,,,0.00,WeatherCatV1.02B3,2013-02-24 02:09:00,
2013-02-23 20:14:00,47.4,41.2,30.01,SSE,163,0.0,0.0,79,0.00,,,0.00,WeatherCatV1.02B3,2013-02-24 02:14:00,
2013-02-23 20:19:00,47.4,41.2,30.01,SSE,163,0.0,0.0,79,0.00,,,0.00,WeatherCatV1.02B3,2013-02-24 02:19:00,
2013-02-23 20:24:00,47.3,40.8,30.01,SSE,163,0.0,2.0,78,0.00,,,0.00,WeatherCatV1.02B3,2013-02-24 02:24:00,
2013-02-23 20:29:00,47.2,40.7,30.01,SSE,163,0.0,4.0,78,0.00,,,0.00,WeatherCatV1.02B3,2013-02-24 02:29:00,
2013-02-23 20:34:00,47.1,40.6,30.01,SSE,163,0.0,2.0,78,0.00,,,0.00,WeatherCatV1.02B3,2013-02-24 02:34:00,
2013-02-23 20:39:00,47.0,40.5,30.01,SSE,161,0.0,5.0,78,0.00,,,0.00,WeatherCatV1.02B3,2013-02-24 02:39:00,
2013-02-23 20:44:00,47.0,40.5,30.02,SSE,161,0.0,0.0,78,0.00,,,0.00,WeatherCatV1.02B3,2013-02-24 02:44:00,
2013-02-23 20:49:00,46.9,40.4,30.02,SSE,161,0.0,0.0,78,0.00,,,0.00,WeatherCatV1.02B3,2013-02-24 02:49:00,
2013-02-23 20:54:00,46.7,40.2,30.02,SSE,161,0.0,2.0,78,0.00,,,0.00,WeatherCatV1.02B3,2013-02-24 02:54:00,
2013-02-23 20:59:00,46.5,40.0,30.02,SSE,161,0.0,0.0,78,0.00,,,0.00,WeatherCatV1.02B3,2013-02-24 02:59:00,
2013-02-23 21:04:00,46.4,40.2,30.02,SSE,161,0.0,0.0,79,0.00,,,0.00,WeatherCatV1.02B3,2013-02-24 03:04:00,
2013-02-23 21:09:00,46.1,40.0,30.02,SSE,161,0.0,0.0,79,0.00,,,0.00,WeatherCatV1.02B3,2013-02-24 03:09:00,
2013-02-23 21:14:00,45.9,39.8,30.02,SSE,161,0.0,0.0,79,0.00,,,0.00,WeatherCatV1.02B3,2013-02-24 03:14:00,
2013-02-23 21:19:00,45.7,39.9,30.02,SSE,161,0.0,0.0,80,0.00,,,0.00,WeatherCatV1.02B3,2013-02-24 03:19:00,
2013-02-23 21:24:00,45.4,39.6,30.02,SSE,161,0.0,0.0,80,0.00,,,0.00,WeatherCatV1.02B3,2013-02-24 03:24:00,
2013-02-23 21:29:00,45.2,39.7,30.02,SSE,161,0.0,0.0,81,0.00,,,0.00,WeatherCatV1.02B3,2013-02-24 03:29:00,
2013-02-23 21:34:00,44.9,39.4,30.02,SSE,161,0.0,0.0,81,0.00,,,0.00,WeatherCatV1.02B3,2013-02-24 03:34:00,
2013-02-23 21:39:00,44.7,39.2,30.02,SSE,161,0.0,0.0,81,0.00,,,0.00,WeatherCatV1.02B3,2013-02-24 03:39:00,
2013-02-23 21:44:00,44.5,39.4,30.02,SSE,161,0.0,0.0,82,0.00,,,0.00,WeatherCatV1.02B3,2013-02-24 03:44:00,
2013-02-23 21:49:00,44.2,39.1,30.02,SSE,161,0.0,0.0,82,0.00,,,0.00,WeatherCatV1.02B3,2013-02-24 03:49:00,
2013-02-23 21:54:00,44.0,39.2,30.02,SSE,161,0.0,0.0,83,0.00,,,0.00,WeatherCatV1.02B3,2013-02-24 03:54:00,
2013-02-23 21:59:00,43.7,38.9,30.02,SSE,161,0.0,0.0,83,0.00,,,0.00,WeatherCatV1.02B3,2013-02-24 03:59:00,
2013-02-23 22:04:00,43.5,39.0,30.02,SSE,161,0.0,0.0,84,0.00,,,0.00,WeatherCatV1.02B3,2013-02-24 04:04:00,
2013-02-23 22:09:00,43.3,38.8,30.02,SSE,161,0.0,0.0,84,0.00,,,0.00,WeatherCatV1.02B3,2013-02-24 04:09:00,
2013-02-23 22:14:00,43.1,38.9,30.01,SSE,161,0.0,0.0,85,0.00,,,0.00,WeatherCatV1.02B3,2013-02-24 04:14:00,
2013-02-23 22:19:00,42.9,38.7,30.02,SSE,161,0.0,0.0,85,0.00,,,0.00,WeatherCatV1.02B3,2013-02-24 04:19:00,
2013-02-23 22:24:00,42.7,38.8,30.02,SSE,161,0.0,0.0,86,0.00,,,0.00,WeatherCatV1.02B3,2013-02-24 04:24:00,
2013-02-23 22:29:00,42.5,38.6,30.02,SSE,161,0.0,0.0,86,0.00,,,0.00,WeatherCatV1.02B3,2013-02-24 04:29:00,
2013-02-23 22:34:00,42.5,38.9,30.02,SSE,161,0.0,0.0,87,0.00,,,0.00,WeatherCatV1.02B3,2013-02-24 04:34:00,
2013-02-23 22:39:00,42.3,38.7,30.02,SSE,161,0.0,0.0,87,0.00,,,0.00,WeatherCatV1.02B3,2013-02-24 04:39:00,
2013-02-23 22:44:00,42.2,38.9,30.02,SSE,161,0.0,0.0,88,0.00,,,0.00,WeatherCatV1.02B3,2013-02-24 04:44:00,
2013-02-23 22:49:00,42.0,38.7,30.02,SSE,161,0.0,0.0,88,0.00,,,0.00,WeatherCatV1.02B3,2013-02-24 04:49:00,
2013-02-23 22:54:00,41.8,38.5,30.02,SSE,161,0.0,0.0,88,0.00,,,0.00,WeatherCatV1.02B3,2013-02-24 04:54:00,
2013-02-23 22:59:00,41.7,38.4,30.02,SSE,161,0.0,0.0,88,0.00,,,0.00,WeatherCatV1.02B3,2013-02-24 04:59:00,
2013-02-23 23:00:00,41.6,38.3,30.02,SSE,161,0.0,0.0,88,0.00,,,0.00,WeatherCatV1.02B3,2013-02-24 05:00:00,
2013-02-23 23:05:00,41.5,38.5,30.02,SSE,161,0.0,0.0,89,0.00,,,0.00,WeatherCatV1.02B3,2013-02-24 05:05:00,
2013-02-23 23:10:00,41.4,38.4,30.02,SSE,161,0.0,0.0,89,0.00,,,0.00,WeatherCatV1.02B3,2013-02-24 05:10:00,
2013-02-23 23:15:00,41.2,38.2,30.02,SSE,161,0.0,0.0,89,0.00,,,0.00,WeatherCatV1.02B3,2013-02-24 05:15:00,
2013-02-23 23:20:00,41.0,38.0,30.02,SSE,161,0.0,0.0,89,0.00,,,0.00,WeatherCatV1.02B3,2013-02-24 05:20:00,
2013-02-23 23:25:00,40.8,38.1,30.02,SSE,161,0.0,0.0,90,0.00,,,0.00,WeatherCatV1.02B3,2013-02-24 05:25:00,
2013-02-23 23:30:00,40.7,38.0,30.02,SSE,161,0.0,0.0,90,0.00,,,0.00,WeatherCatV1.02B3,2013-02-24 05:30:00,
2013-02-23 23:35:00,40.6,37.9,30.02,SSE,161,0.0,0.0,90,0.00,,,0.00,WeatherCatV1.02B3,2013-02-24 05:35:00,
2013-02-23 23:40:00,40.5,37.8,30.02,SSE,161,0.0,0.0,90,0.00,,,0.00,WeatherCatV1.02B3,2013-02-24 05:40:00,
2013-02-23 23:45:00,40.4,37.7,30.02,SSE,161,0.0,0.0,90,0.00,,,0.00,WeatherCatV1.02B3,2013-02-24 05:45:00,
2013-02-23 23:50:00,40.3,37.6,30.02,SSE,161,0.0,0.0,90,0.00,,,0.00,WeatherCatV1.02B3,2013-02-24 05:50:00,
2013-02-23 23:55:00,40.1,37.7,30.02,SSE,161,0.0,0.0,91,0.00,,,0.00,WeatherCatV1.02B3,2013-02-24 05:55:00,